Kankakee, IL

6:30 PM CDT on June 22, 2017 (GMT -0500)
Greater Kankakee

Weather History for KIKK - February, 2013

Change the Weather History Date:

Thursday, February 14, 2013

  Actual Average Record
Temperature  
Mean Temperature 36 °F -  
Max Temperature 40 °F 36 °F 57 °F (2006)
Min Temperature 32 °F 18 °F -3 °F (1986)
Degree Days  
Heating Degree Days 29    
Moisture  
Dew Point 31 °F    
Average Humidity 82    
Maximum Humidity 92    
Minimum Humidity 70    
Precipitation  
Precipitation 0.00 in - - ()
Sea Level Pressure  
Sea Level Pressure 29.83 in    
Wind  
Wind Speed 11 mph (WSW)    
Max Wind Speed 24 mph    
Max Gust Speed 32 mph    
Visibility 10 miles    
Events      
Averages and records for this station are not official NWS values.
T = Trace of Precipitation, MM = Missing Value Source: NWS Daily Summary

Daily Weather History Graph

Daily Weather History Graph

Search for Another Location

Airport or City:

Trip Planner

Search our weather history database for the weather conditions in past years. The results will help you decide how hot, cold, wet, or windy it might be!

Date:

Astronomy

Feb. 14, 2013 Rise Set
Actual Time 6:46 AM CST 5:24 PM CST
Civil Twilight 6:18 AM CST 5:53 PM CST
Nautical Twilight 5:46 AM CST 6:25 PM CST
Astronomical Twilight 5:14 AM CST 6:57 PM CST
Moon 8:45 AM CST (2/14) 10:30 PM CST (2/14)
Length of Visible Light 11h 34m
Length of Day
10h 38m
Waxing Crescent, 22% of the Moon is Illuminated
Feb 14
Waxing Crescent
Feb 17
First Quarter
Feb 25
Full
Mar 4
Last Quarter
Mar 11
New

Hourly Weather History & Observations

Time (CST) Temp. Windchill Dew Point Humidity Pressure Visibility Wind Dir Wind Speed Gust Speed Precip Events Conditions
12:15 AM 32.5 °F 25.5 °F 30.6 °F 92% 29.78 in 10.0 mi SSW 8.1 mph - N/A   Overcast
12:35 AM 33.8 °F 27.7 °F 31.1 °F 90% 29.77 in 10.0 mi SSW 6.9 mph - N/A   Overcast
12:55 AM 34.3 °F 28.4 °F 31.1 °F 88% 29.77 in 10.0 mi SSW 6.9 mph - N/A   Overcast
1:15 AM 34.2 °F 27.5 °F 31.1 °F 89% 29.77 in 10.0 mi South 8.1 mph - N/A   Overcast
1:35 AM 33.1 °F 26.1 °F 30.7 °F 91% 29.76 in 10.0 mi South 8.1 mph - N/A   Overcast
1:55 AM 33.4 °F 27.3 °F 30.9 °F 90% 29.76 in 10.0 mi South 6.9 mph - N/A   Overcast
2:15 AM 33.4 °F 27.3 °F 31.1 °F 91% 29.75 in 10.0 mi South 6.9 mph - N/A   Overcast
2:35 AM 33.8 °F 28.6 °F 31.1 °F 90% 29.75 in 10.0 mi SSW 5.8 mph - N/A   Overcast
2:55 AM 33.8 °F 26.4 °F 31.1 °F 90% 29.75 in 10.0 mi South 9.2 mph - N/A   Overcast
3:15 AM 33.8 °F 24.8 °F 31.1 °F 90% 29.74 in 10.0 mi South 12.7 mph - N/A   Overcast
3:35 AM 33.8 °F 25.3 °F 31.1 °F 90% 29.74 in 10.0 mi South 11.5 mph - N/A   Overcast
3:55 AM 34.2 °F 25.7 °F 31.1 °F 89% 29.73 in 10.0 mi South 11.5 mph - N/A   Overcast
4:15 AM 35.1 °F 25.2 °F 31.3 °F 86% 29.73 in 10.0 mi South 16.1 mph - N/A   Overcast
4:35 AM 35.1 °F 26.9 °F 31.6 °F 87% 29.71 in 10.0 mi South 11.5 mph - N/A   Light Drizzle
4:55 AM 34.9 °F 26.2 °F 31.5 °F 87% 29.70 in 10.0 mi South 12.7 mph - N/A   Overcast
5:15 AM 34.9 °F 26.2 °F 31.6 °F 88% 29.70 in 10.0 mi South 12.7 mph - N/A   Overcast
5:35 AM 35.1 °F 25.9 °F 31.8 °F 88% 29.71 in 10.0 mi South 13.8 mph - N/A   Overcast
5:55 AM 35.2 °F 26.2 °F 32.0 °F 88% 29.71 in 10.0 mi SSW 13.8 mph 21.9 mph N/A   Overcast
6:15 AM 35.1 °F 25.9 °F 32.0 °F 89% 29.71 in 10.0 mi SSW 13.8 mph - N/A   Overcast
6:35 AM 35.1 °F 25.9 °F 32.0 °F 89% 29.72 in 10.0 mi SSW 13.8 mph - N/A   Overcast
6:55 AM 34.7 °F 25.1 °F 32.0 °F 90% 29.72 in 10.0 mi SSW 15.0 mph - N/A   Mostly Cloudy
7:15 AM 34.3 °F 25.0 °F 31.8 °F 90% 29.72 in 10.0 mi SSW 13.8 mph 20.7 mph N/A   Mostly Cloudy
7:35 AM 34.5 °F 25.7 °F 32.0 °F 90% 29.72 in 10.0 mi SSW 12.7 mph - N/A   Scattered Clouds
7:55 AM 36.0 °F 27.5 °F 32.0 °F 86% 29.73 in 10.0 mi SW 12.7 mph - N/A   Scattered Clouds
8:15 AM 36.5 °F 28.2 °F 32.2 °F 84% 29.74 in 10.0 mi SW 12.7 mph - N/A   Clear
8:35 AM 36.3 °F 28.0 °F 32.0 °F 84% 29.74 in 10.0 mi SW 12.7 mph - N/A   Scattered Clouds
8:55 AM 36.9 °F 28.7 °F 32.0 °F 83% 29.75 in 10.0 mi SW 12.7 mph 18.4 mph N/A   Mostly Cloudy
9:15 AM 37.0 °F 28.9 °F 32.2 °F 83% 29.75 in 10.0 mi WSW 12.7 mph - N/A   Overcast
9:35 AM 36.5 °F 28.2 °F 32.0 °F 84% 29.75 in 10.0 mi WSW 12.7 mph 19.6 mph N/A   Mostly Cloudy
9:55 AM 40.3 °F 31.9 °F 33.6 °F 77% 29.75 in 10.0 mi WSW 16.1 mph 21.9 mph N/A   Mostly Cloudy
10:15 AM 39.0 °F 28.8 °F 31.8 °F 75% 29.76 in 10.0 mi WSW 21.9 mph 25.3 mph N/A   Overcast
10:35 AM 37.9 °F 28.2 °F 31.3 °F 77% 29.76 in 10.0 mi WSW 18.4 mph 26.5 mph N/A   Overcast
10:55 AM 37.6 °F 27.1 °F 31.1 °F 77% 29.77 in 10.0 mi West 20.7 mph 31.1 mph N/A   Overcast
11:15 AM 37.6 °F 26.9 °F 30.4 °F 75% 29.78 in 10.0 mi West 21.9 mph 29.9 mph N/A   Overcast
11:35 AM 37.8 °F 26.6 °F 30.0 °F 74% 29.79 in 10.0 mi West 24.2 mph 29.9 mph N/A   Overcast
11:55 AM 37.6 °F 27.1 °F 30.0 °F 74% 29.79 in 10.0 mi West 20.7 mph 24.2 mph N/A   Overcast
12:15 PM 37.4 °F 27.5 °F 30.6 °F 76% 29.79 in 10.0 mi West 18.4 mph 27.6 mph N/A   Overcast
12:35 PM 37.6 °F 27.1 °F 30.9 °F 77% 29.79 in 10.0 mi West 20.7 mph 32.2 mph N/A   Overcast
12:55 PM 37.6 °F 27.7 °F 31.1 °F 77% 29.79 in 10.0 mi West 18.4 mph 25.3 mph N/A   Overcast
1:15 PM 37.6 °F 26.9 °F 30.9 °F 77% 29.79 in 10.0 mi West 21.9 mph 28.8 mph N/A   Overcast
1:35 PM 37.9 °F 28.2 °F 31.3 °F 77% 29.80 in 10.0 mi West 18.4 mph 27.6 mph N/A   Overcast
1:55 PM 38.3 °F 29.0 °F 31.1 °F 75% 29.82 in 10.0 mi West 17.3 mph - N/A   Overcast
2:15 PM 38.3 °F 28.1 °F 30.9 °F 75% 29.82 in 10.0 mi West 20.7 mph 26.5 mph N/A   Overcast
2:35 PM 37.9 °F 28.2 °F 31.3 °F 77% 29.84 in 10.0 mi West 18.4 mph 24.2 mph N/A   Overcast
2:55 PM 38.7 °F 29.1 °F 30.4 °F 72% 29.84 in 10.0 mi West 18.4 mph 28.8 mph N/A   Overcast
3:15 PM 39.2 °F 30.5 °F 30.9 °F 72% 29.85 in 10.0 mi West 16.1 mph 27.6 mph N/A   Overcast
3:35 PM 39.0 °F 29.9 °F 30.0 °F 70% 29.86 in 10.0 mi West 17.3 mph 26.5 mph N/A   Overcast
3:55 PM 38.5 °F 28.9 °F 30.2 °F 72% 29.87 in 10.0 mi West 18.4 mph 24.2 mph N/A   Overcast
4:15 PM 38.5 °F 29.2 °F 29.5 °F 70% 29.87 in 10.0 mi West 17.3 mph 21.9 mph N/A   Overcast
4:35 PM 38.5 °F 29.9 °F 29.7 °F 71% 29.89 in 10.0 mi West 15.0 mph 21.9 mph N/A   Overcast
4:55 PM 37.8 °F 30.2 °F 30.0 °F 74% 29.90 in 10.0 mi West 11.5 mph - N/A   Overcast
5:15 PM 37.4 °F 30.3 °F 30.6 °F 76% 29.91 in 10.0 mi West 10.4 mph - N/A   Overcast
5:35 PM 36.9 °F 30.7 °F 31.1 °F 80% 29.92 in 10.0 mi West 8.1 mph - N/A   Overcast
5:55 PM 37.0 °F 28.5 °F 29.7 °F 75% 29.93 in 10.0 mi West 13.8 mph - N/A   Overcast
6:15 PM 36.5 °F 29.2 °F 29.3 °F 75% 29.95 in 10.0 mi West 10.4 mph - N/A   Overcast
6:35 PM 36.3 °F 28.9 °F 28.8 °F 74% 29.95 in 10.0 mi West 10.4 mph - N/A   Overcast
6:55 PM 35.6 °F 29.2 °F 28.6 °F 76% 29.97 in 10.0 mi West 8.1 mph - N/A   Overcast
7:15 PM 34.7 °F 29.6 °F 28.4 °F 78% 29.97 in 10.0 mi West 5.8 mph - N/A   Overcast
7:35 PM 33.8 °F 28.6 °F 29.5 °F 84% 29.97 in 10.0 mi West 5.8 mph - N/A   Overcast
7:55 PM 33.8 °F 28.6 °F 29.3 °F 84% 29.98 in 10.0 mi West 5.8 mph - N/A   Overcast
8:15 PM 33.8 °F 29.6 °F 29.1 °F 83% 29.98 in 10.0 mi West 4.6 mph - N/A   Overcast
8:35 PM 33.1 °F - 28.9 °F 85% 29.97 in 10.0 mi Calm Calm - N/A   Scattered Clouds
8:55 PM 32.0 °F 28.7 °F 28.4 °F 87% 29.99 in 10.0 mi West 3.5 mph - N/A   Clear
9:15 PM 32.2 °F 27.7 °F 29.3 °F 89% 29.99 in 10.0 mi WSW 4.6 mph - N/A   Mostly Cloudy
9:35 PM 32.2 °F 28.9 °F 29.3 °F 89% 29.99 in 10.0 mi WSW 3.5 mph - N/A   Overcast
9:55 PM 32.5 °F - 29.1 °F 87% 29.97 in 10.0 mi Calm Calm - N/A   Overcast
10:15 PM 33.1 °F 30.0 °F 28.9 °F 85% 29.99 in 10.0 mi WNW 3.5 mph - N/A   Overcast
10:35 PM 32.9 °F 29.8 °F 28.9 °F 85% 29.99 in 10.0 mi West 3.5 mph - N/A   Overcast
10:55 PM 32.9 °F 28.5 °F 28.4 °F 84% 30.00 in 10.0 mi West 4.6 mph - N/A   Overcast
11:15 PM 32.5 °F 29.3 °F 28.4 °F 85% 29.99 in 10.0 mi West 3.5 mph - N/A   Overcast
11:35 PM 32.9 °F - 27.9 °F 82% 29.99 in 10.0 mi Calm Calm - N/A   Overcast
11:55 PM 32.7 °F 28.3 °F 26.4 °F 78% 30.00 in 10.0 mi WNW 4.6 mph - N/A   Overcast